LGL8172 LFBD-ELLX

Flight info

Callsign LGL8172
Flight time 1h 29m
Altitude 24000
Route CNA DCT ADABI DCT BOKNO UN858 VANAD UN874 VADOM UL976 TSU UM163 LEQOS DCT CTL DCT MMD
Aircraft DH8D/M-SDE2E3FGRY/H

Departure

Time 2026-04-30 21:01
Airport Bordeaux–Mérignac Airport (LFBD)

Arrival

Time 2026-04-30 22:30
Airport Luxembourg-Findel International Airport (ELLX)
Time Latitude Longitude Altitude Speed Heading
2026-04-30 20:35 44.82892 -0.70080 167 ft 0 kts 54°
2026-04-30 20:49 44.82892 -0.70079 167 ft 0 kts 54°
2026-04-30 20:50 44.82883 -0.70095 167 ft 2 kts 42°
2026-04-30 20:50 44.82871 -0.70107 167 ft 2 kts 31°
2026-04-30 20:50 44.82858 -0.70116 168 ft 2 kts 19°
2026-04-30 20:50 44.82843 -0.70121 168 ft 2 kts 351°
2026-04-30 20:51 44.82831 -0.70110 168 ft 2 kts 303°
2026-04-30 20:51 44.82826 -0.70090 167 ft 0 kts 285°
2026-04-30 20:57 44.82826 -0.70092 167 ft 2 kts 285°
2026-04-30 20:57 44.82834 -0.70132 168 ft 7 kts 284°
2026-04-30 20:58 44.82810 -0.70314 168 ft 21 kts 286°
2026-04-30 20:58 44.82858 -0.70545 168 ft 23 kts 287°
2026-04-30 20:58 44.82902 -0.70744 168 ft 19 kts 286°
2026-04-30 20:58 44.82936 -0.70910 168 ft 16 kts 285°
2026-04-30 20:59 44.82988 -0.71166 168 ft 11 kts 286°
2026-04-30 20:59 44.83010 -0.71271 168 ft 10 kts 286°
2026-04-30 21:00 44.82681 -0.71795 169 ft 106 kts 225°
2026-04-30 21:00 44.81258 -0.73945 717 ft 166 kts 227°
2026-04-30 21:01 44.79749 -0.76387 1990 ft 171 kts 228°
2026-04-30 21:01 44.79016 -0.77574 2699 ft 161 kts 227°
2026-04-30 21:01 44.78987 -0.80579 3555 ft 173 kts 317°
2026-04-30 21:02 44.80061 -0.81232 4063 ft 167 kts 354°
2026-04-30 21:02 44.81198 -0.81310 4608 ft 170 kts
2026-04-30 21:02 44.82332 -0.81198 5234 ft 165 kts
2026-04-30 21:02 44.83537 -0.80934 5634 ft 174 kts
2026-04-30 21:03 44.84694 -0.80770 6242 ft 175 kts
2026-04-30 21:03 44.85995 -0.80473 6430 ft 197 kts 19°
2026-04-30 21:03 44.87192 -0.79627 7054 ft 199 kts 31°
2026-04-30 21:03 44.88404 -0.78446 7278 ft 216 kts 35°
2026-04-30 21:04 44.89665 -0.77198 7673 ft 229 kts 34°
2026-04-30 21:04 44.91043 -0.75906 7933 ft 248 kts 32°
2026-04-30 21:04 44.94046 -0.73292 8974 ft 258 kts 31°
2026-04-30 21:05 44.95575 -0.71957 9534 ft 261 kts 31°
2026-04-30 21:05 44.97113 -0.70607 10113 ft 264 kts 31°
2026-04-30 21:05 44.98679 -0.69228 10697 ft 266 kts 31°
2026-04-30 21:05 45.00248 -0.67842 11240 ft 269 kts 31°
2026-04-30 21:06 45.01840 -0.66435 11782 ft 271 kts 31°
2026-04-30 21:06 45.03435 -0.65020 12298 ft 274 kts 31°
2026-04-30 21:06 45.05055 -0.63582 12814 ft 275 kts 31°
2026-04-30 21:06 45.06662 -0.62152 13316 ft 276 kts 31°
2026-04-30 21:07 45.08305 -0.60690 13818 ft 277 kts 31°
2026-04-30 21:07 45.09931 -0.59240 14308 ft 278 kts 31°
2026-04-30 21:07 45.11570 -0.57779 14792 ft 278 kts 31°
2026-04-30 21:07 45.13191 -0.56330 15267 ft 278 kts 31°
2026-04-30 21:08 45.14862 -0.54932 15735 ft 277 kts 24°
2026-04-30 21:08 45.16662 -0.53992 16186 ft 276 kts 16°
2026-04-30 21:08 45.18475 -0.53170 16627 ft 275 kts 16°
2026-04-30 21:08 45.20317 -0.52334 17062 ft 275 kts 15°
2026-04-30 21:09 45.22136 -0.51505 17468 ft 275 kts 15°
2026-04-30 21:09 45.23940 -0.50680 17866 ft 276 kts 16°
2026-04-30 21:09 45.25770 -0.49839 18257 ft 276 kts 16°
2026-04-30 21:09 45.27602 -0.48996 18638 ft 276 kts 16°
2026-04-30 21:10 45.29428 -0.48153 19000 ft 276 kts 16°
2026-04-30 21:10 45.31244 -0.47314 19329 ft 276 kts 17°
2026-04-30 21:10 45.33081 -0.46463 19658 ft 277 kts 16°
2026-04-30 21:10 45.34907 -0.45617 19987 ft 277 kts 16°
2026-04-30 21:11 45.36736 -0.44768 20306 ft 277 kts 16°
2026-04-30 21:11 45.38585 -0.43909 20610 ft 277 kts 17°
2026-04-30 21:11 45.40416 -0.43058 20896 ft 277 kts 17°
2026-04-30 21:11 45.42234 -0.42212 21176 ft 276 kts 20°
2026-04-30 21:12 45.44074 -0.41355 21455 ft 276 kts 18°
2026-04-30 21:12 45.45801 -0.40551 21695 ft 276 kts 17°
2026-04-30 21:12 45.47731 -0.39650 21949 ft 277 kts 18°
2026-04-30 21:12 45.49565 -0.38794 22186 ft 277 kts 20°
2026-04-30 21:13 45.51387 -0.37942 22430 ft 275 kts 21°
2026-04-30 21:13 45.53203 -0.37094 22668 ft 275 kts 20°
2026-04-30 21:13 45.54999 -0.36254 22888 ft 274 kts 21°
2026-04-30 21:13 45.56812 -0.35406 23123 ft 272 kts 21°
2026-04-30 21:14 45.58619 -0.34560 23363 ft 269 kts 22°
2026-04-30 21:14 45.60375 -0.33739 23578 ft 267 kts 22°
2026-04-30 21:14 45.62151 -0.32906 23780 ft 266 kts 23°
2026-04-30 21:14 45.63911 -0.32080 23959 ft 266 kts 23°
2026-04-30 21:15 45.65662 -0.31232 24094 ft 266 kts 27°
2026-04-30 21:15 45.67274 -0.29996 24142 ft 266 kts 38°
2026-04-30 21:15 45.68848 -0.28536 24156 ft 272 kts 38°
2026-04-30 21:15 45.70442 -0.27051 24156 ft 278 kts 38°
2026-04-30 21:16 45.72088 -0.25522 24158 ft 283 kts 38°
2026-04-30 21:16 45.73755 -0.23978 24158 ft 289 kts 38°
2026-04-30 21:16 45.75458 -0.22403 24159 ft 295 kts 37°
2026-04-30 21:16 45.77196 -0.20799 24157 ft 300 kts 37°
2026-04-30 21:17 45.78963 -0.19168 24155 ft 304 kts 37°
2026-04-30 21:17 45.80755 -0.17515 24158 ft 309 kts 37°
2026-04-30 21:17 45.82590 -0.15820 24155 ft 313 kts 37°
2026-04-30 21:17 45.84411 -0.14138 24153 ft 317 kts 37°
2026-04-30 21:18 45.86288 -0.12404 24151 ft 320 kts 37°
2026-04-30 21:18 45.88166 -0.10667 24148 ft 322 kts 37°
2026-04-30 21:18 45.90046 -0.08929 24149 ft 324 kts 37°
2026-04-30 21:18 45.91958 -0.07158 24151 ft 326 kts 37°
2026-04-30 21:19 45.93856 -0.05399 24153 ft 328 kts 37°
2026-04-30 21:19 45.95792 -0.03605 24153 ft 329 kts 37°
2026-04-30 21:19 45.97722 -0.01812 24153 ft 330 kts 37°
2026-04-30 21:19 45.99639 -0.00031 24154 ft 332 kts 37°
2026-04-30 21:20 46.01591 0.01784 24151 ft 332 kts 37°
2026-04-30 21:20 46.03547 0.03603 24151 ft 333 kts 37°
2026-04-30 21:20 46.05475 0.05400 24151 ft 334 kts 37°
2026-04-30 21:20 46.07423 0.07216 24150 ft 335 kts 37°
2026-04-30 21:21 46.09382 0.09044 24152 ft 335 kts 37°
2026-04-30 21:21 46.11344 0.10876 24148 ft 335 kts 37°
2026-04-30 21:21 46.15247 0.14525 24144 ft 334 kts 37°
2026-04-30 21:22 46.17179 0.16333 24149 ft 333 kts 37°
2026-04-30 21:22 46.23036 0.21829 24146 ft 335 kts 36°
2026-04-30 21:23 46.24972 0.23649 24147 ft 335 kts 37°
2026-04-30 21:23 46.26940 0.25500 24150 ft 337 kts 36°
2026-04-30 21:23 46.30900 0.29230 24148 ft 339 kts 36°
2026-04-30 21:24 46.32887 0.31104 24146 ft 340 kts 36°
2026-04-30 21:24 46.34849 0.32957 24147 ft 341 kts 36°
2026-04-30 21:24 46.36856 0.34852 24141 ft 342 kts 36°
2026-04-30 21:24 46.38852 0.36740 24143 ft 343 kts 36°
2026-04-30 21:25 46.42851 0.40526 24141 ft 343 kts 36°
2026-04-30 21:25 46.44833 0.42404 24141 ft 344 kts 36°
2026-04-30 21:25 46.46836 0.44305 24144 ft 344 kts 36°
2026-04-30 21:26 46.50850 0.48119 24147 ft 344 kts 36°
2026-04-30 21:26 46.52853 0.50025 24149 ft 345 kts 36°
2026-04-30 21:27 46.57039 0.53458 24135 ft 348 kts 19°
2026-04-30 21:27 46.59383 0.54276 24136 ft 349 kts 14°
2026-04-30 21:27 46.61739 0.55035 24140 ft 350 kts 14°
2026-04-30 21:28 46.66522 0.56580 24145 ft 350 kts 15°
2026-04-30 21:28 46.68890 0.57351 24144 ft 350 kts 14°
2026-04-30 21:28 46.73645 0.58907 24146 ft 351 kts 14°
2026-04-30 21:29 46.76034 0.59692 24146 ft 351 kts 14°
2026-04-30 21:29 46.83185 0.62052 24145 ft 352 kts 14°
2026-04-30 21:30 46.87952 0.63632 24143 ft 352 kts 14°
2026-04-30 21:31 46.95131 0.66016 24143 ft 351 kts 15°
2026-04-30 21:31 46.99865 0.67593 24147 ft 350 kts 15°
2026-04-30 21:32 47.03687 0.68868 24147 ft 351 kts 15°
2026-04-30 21:32 47.06108 0.69411 24147 ft 350 kts
2026-04-30 21:32 47.08535 0.69661 24140 ft 345 kts
2026-04-30 21:32 47.10907 0.69890 24140 ft 342 kts
2026-04-30 21:33 47.13251 0.70120 24142 ft 339 kts
2026-04-30 21:33 47.17876 0.70581 24144 ft 331 kts
2026-04-30 21:33 47.20184 0.70816 24145 ft 330 kts
2026-04-30 21:34 47.22467 0.71051 24143 ft 329 kts
2026-04-30 21:34 47.27038 0.71526 24148 ft 332 kts
2026-04-30 21:34 47.29359 0.71768 24147 ft 334 kts
2026-04-30 21:35 47.31669 0.72010 24144 ft 335 kts
2026-04-30 21:35 47.34017 0.72255 24144 ft 335 kts
2026-04-30 21:35 47.36335 0.72499 24144 ft 336 kts
2026-04-30 21:35 47.38670 0.72744 24147 ft 337 kts
2026-04-30 21:36 47.41009 0.72997 24141 ft 337 kts
2026-04-30 21:36 47.43291 0.73634 24148 ft 334 kts 17°
2026-04-30 21:37 47.49990 0.76708 24134 ft 337 kts 20°
2026-04-30 21:37 47.52226 0.77760 24134 ft 337 kts 20°
2026-04-30 21:37 47.54450 0.78808 24133 ft 338 kts 20°
2026-04-30 21:37 47.56690 0.79863 24132 ft 338 kts 20°
2026-04-30 21:38 47.58952 0.80929 24132 ft 338 kts 20°
2026-04-30 21:38 47.61171 0.81976 24133 ft 338 kts 20°
2026-04-30 21:38 47.63411 0.83034 24134 ft 338 kts 20°
2026-04-30 21:38 47.65658 0.84095 24132 ft 338 kts 20°
2026-04-30 21:39 47.67886 0.85148 24131 ft 338 kts 20°
2026-04-30 21:39 47.70131 0.86211 24132 ft 338 kts 20°
2026-04-30 21:39 47.72381 0.87276 24132 ft 338 kts 20°
2026-04-30 21:39 47.74633 0.88343 24133 ft 339 kts 20°
2026-04-30 21:40 47.76876 0.89408 24134 ft 339 kts 20°
2026-04-30 21:40 47.79122 0.90475 24134 ft 339 kts 20°
2026-04-30 21:40 47.81377 0.91547 24132 ft 340 kts 20°
2026-04-30 21:40 47.83629 0.92618 24132 ft 340 kts 20°
2026-04-30 21:41 47.85863 0.93682 24133 ft 340 kts 20°
2026-04-30 21:41 47.88127 0.94761 24133 ft 340 kts 20°
2026-04-30 21:41 47.90385 0.95838 24134 ft 340 kts 20°
2026-04-30 21:41 47.92639 0.96915 24135 ft 341 kts 20°
2026-04-30 21:42 47.94882 0.97986 24134 ft 341 kts 20°
2026-04-30 21:42 47.97134 0.99064 24133 ft 341 kts 20°
2026-04-30 21:42 47.99412 1.00154 24134 ft 341 kts 20°
2026-04-30 21:42 48.01659 1.01230 24134 ft 341 kts 20°
2026-04-30 21:43 48.03903 1.02307 24134 ft 340 kts 20°
2026-04-30 21:43 48.06174 1.03397 24134 ft 340 kts 20°
2026-04-30 21:43 48.08421 1.04477 24136 ft 340 kts 20°
2026-04-30 21:43 48.10688 1.05568 24136 ft 340 kts 20°
2026-04-30 21:44 48.12933 1.06655 24137 ft 339 kts 21°
2026-04-30 21:44 48.15164 1.07752 24136 ft 339 kts 21°
2026-04-30 21:44 48.17430 1.08861 24136 ft 339 kts 21°
2026-04-30 21:44 48.19682 1.09959 24136 ft 340 kts 21°
2026-04-30 21:45 48.21903 1.11063 24135 ft 339 kts 24°
2026-04-30 21:45 48.23857 1.12983 24134 ft 329 kts 51°
2026-04-30 21:45 48.25149 1.15722 24150 ft 325 kts 61°
2026-04-30 21:45 48.26333 1.18606 24146 ft 326 kts 62°
2026-04-30 21:46 48.27501 1.21525 24143 ft 325 kts 62°
2026-04-30 21:46 48.28652 1.24449 24143 ft 325 kts 63°
2026-04-30 21:46 48.29792 1.27372 24145 ft 325 kts 63°
2026-04-30 21:46 48.30935 1.30323 24148 ft 325 kts 63°
2026-04-30 21:47 48.32074 1.33286 24145 ft 325 kts 63°
2026-04-30 21:47 48.33190 1.36200 24144 ft 326 kts 63°
2026-04-30 21:47 48.34319 1.39156 24148 ft 326 kts 63°
2026-04-30 21:47 48.35444 1.42113 24151 ft 326 kts 63°
2026-04-30 21:48 48.36574 1.45091 24152 ft 326 kts 63°
2026-04-30 21:48 48.37690 1.48037 24151 ft 326 kts 63°
2026-04-30 21:48 48.38811 1.51006 24154 ft 326 kts 64°
2026-04-30 21:48 48.39934 1.53981 24156 ft 326 kts 64°
2026-04-30 21:49 48.41050 1.56943 24154 ft 326 kts 64°
2026-04-30 21:49 48.42154 1.59878 24154 ft 326 kts 64°
2026-04-30 21:49 48.43281 1.62878 24157 ft 326 kts 64°
2026-04-30 21:49 48.44378 1.65801 24163 ft 325 kts 65°
2026-04-30 21:50 48.45500 1.68796 24157 ft 324 kts 64°
2026-04-30 21:50 48.46598 1.71730 24160 ft 324 kts 65°
2026-04-30 21:50 48.47704 1.74689 24165 ft 324 kts 64°
2026-04-30 21:50 48.48809 1.77648 24164 ft 324 kts 64°
2026-04-30 21:51 48.49914 1.80628 24164 ft 323 kts 65°
2026-04-30 21:51 48.50861 1.83641 24169 ft 321 kts 70°
2026-04-30 21:51 48.51745 1.86750 24169 ft 321 kts 70°
2026-04-30 21:51 48.52616 1.89825 24170 ft 321 kts 70°
2026-04-30 21:52 48.53495 1.92926 24172 ft 320 kts 70°
2026-04-30 21:52 48.54369 1.96002 24171 ft 321 kts 70°
2026-04-30 21:52 48.55259 1.99132 24171 ft 320 kts 70°
2026-04-30 21:52 48.56125 2.02177 24179 ft 320 kts 70°
2026-04-30 21:53 48.57003 2.05262 24177 ft 320 kts 70°
2026-04-30 21:53 48.57884 2.08362 24178 ft 320 kts 70°
2026-04-30 21:53 48.58763 2.11455 24179 ft 320 kts 70°
2026-04-30 21:53 48.59634 2.14525 24183 ft 320 kts 70°
2026-04-30 21:54 48.60505 2.17594 24184 ft 319 kts 70°
2026-04-30 21:54 48.61379 2.20678 24183 ft 319 kts 70°
2026-04-30 21:54 48.62255 2.23774 24181 ft 319 kts 70°
2026-04-30 21:54 48.63119 2.26830 24184 ft 319 kts 70°
2026-04-30 21:55 48.63983 2.29889 24185 ft 317 kts 70°
2026-04-30 21:55 48.64849 2.32958 24188 ft 317 kts 70°
2026-04-30 21:55 48.65717 2.36040 24188 ft 317 kts 70°
2026-04-30 21:55 48.66584 2.39122 24186 ft 317 kts 71°
2026-04-30 21:56 48.67445 2.42188 24184 ft 317 kts 70°
2026-04-30 21:56 48.68304 2.45250 24186 ft 317 kts 70°
2026-04-30 21:56 48.69159 2.48299 24186 ft 317 kts 70°
2026-04-30 21:56 48.70021 2.51381 24184 ft 317 kts 70°
2026-04-30 21:57 48.70874 2.54433 24189 ft 316 kts 70°
2026-04-30 21:57 48.71733 2.57508 24190 ft 317 kts 70°
2026-04-30 21:57 48.72593 2.60592 24187 ft 316 kts 70°
2026-04-30 21:57 48.73442 2.63640 24187 ft 316 kts 70°
2026-04-30 21:58 48.74281 2.66658 24187 ft 315 kts 71°
2026-04-30 21:58 48.75133 2.69724 24191 ft 314 kts 71°
2026-04-30 21:58 48.75982 2.72785 24189 ft 314 kts 71°
2026-04-30 21:58 48.76819 2.75807 24192 ft 315 kts 71°
2026-04-30 21:59 48.77669 2.78884 24195 ft 316 kts 71°
2026-04-30 21:59 48.78515 2.81945 24189 ft 317 kts 71°
2026-04-30 21:59 48.79361 2.85010 24186 ft 317 kts 71°
2026-04-30 22:00 48.81069 2.91212 24187 ft 318 kts 71°
2026-04-30 22:00 48.82761 2.97375 24191 ft 318 kts 71°
2026-04-30 22:00 48.83616 3.00493 24188 ft 318 kts 71°
2026-04-30 22:01 48.84460 3.03573 24188 ft 318 kts 71°
2026-04-30 22:01 48.85306 3.06669 24190 ft 318 kts 71°
2026-04-30 22:01 48.86151 3.09765 24190 ft 319 kts 71°
2026-04-30 22:01 48.86996 3.12860 24193 ft 319 kts 71°
2026-04-30 22:02 48.87846 3.15983 24193 ft 319 kts 71°
2026-04-30 22:02 48.88686 3.19069 24194 ft 319 kts 71°
2026-04-30 22:02 48.89525 3.22160 24193 ft 319 kts 71°
2026-04-30 22:02 48.90372 3.25280 24191 ft 319 kts 71°
2026-04-30 22:03 48.91212 3.28382 24196 ft 319 kts 71°
2026-04-30 22:03 48.92054 3.31493 24197 ft 319 kts 71°
2026-04-30 22:03 48.92897 3.34614 24195 ft 319 kts 71°
2026-04-30 22:03 48.93731 3.37706 24203 ft 318 kts 71°
2026-04-30 22:04 48.94569 3.40814 24206 ft 318 kts 71°
2026-04-30 22:04 48.95406 3.43925 24203 ft 319 kts 71°
2026-04-30 22:04 48.97083 3.50169 24207 ft 319 kts 71°
2026-04-30 22:05 48.97926 3.53314 24208 ft 319 kts 71°
2026-04-30 22:05 48.98754 3.56409 24207 ft 318 kts 71°
2026-04-30 22:05 48.99588 3.59528 24213 ft 318 kts 71°
2026-04-30 22:05 49.00424 3.62659 24209 ft 318 kts 71°
2026-04-30 22:06 49.01244 3.65736 24209 ft 317 kts 72°
2026-04-30 22:06 49.02894 3.71936 24217 ft 317 kts 72°
2026-04-30 22:06 49.03724 3.75062 24214 ft 317 kts 72°
2026-04-30 22:07 49.04539 3.78139 24217 ft 317 kts 72°
2026-04-30 22:07 49.05365 3.81256 24218 ft 317 kts 72°
2026-04-30 22:07 49.06191 3.84381 24221 ft 317 kts 72°
2026-04-30 22:07 49.07010 3.87482 24228 ft 317 kts 72°
2026-04-30 22:08 49.07826 3.90574 24228 ft 318 kts 72°
2026-04-30 22:08 49.08649 3.93698 24226 ft 318 kts 72°
2026-04-30 22:08 49.09477 3.96845 24225 ft 318 kts 72°
2026-04-30 22:08 49.10294 3.99958 24229 ft 318 kts 72°
2026-04-30 22:09 49.11107 4.03058 24229 ft 318 kts 72°
2026-04-30 22:09 49.11926 4.06185 24232 ft 317 kts 72°
2026-04-30 22:09 49.12741 4.09297 24232 ft 317 kts 72°
2026-04-30 22:09 49.13555 4.12410 24232 ft 317 kts 72°
2026-04-30 22:10 49.14372 4.15543 24233 ft 316 kts 72°
2026-04-30 22:10 49.15186 4.18667 24232 ft 316 kts 72°
2026-04-30 22:10 49.15991 4.21761 24233 ft 317 kts 71°
2026-04-30 22:10 49.16803 4.24883 24232 ft 317 kts 71°
2026-04-30 22:11 49.18418 4.31122 24231 ft 317 kts 71°
2026-04-30 22:11 49.19235 4.34276 24232 ft 317 kts 71°
2026-04-30 22:11 49.20044 4.37403 24236 ft 317 kts 71°
2026-04-30 22:12 49.20851 4.40531 24236 ft 317 kts 71°
2026-04-30 22:12 49.21649 4.43632 24234 ft 317 kts 71°
2026-04-30 22:12 49.22456 4.46767 24231 ft 317 kts 71°
2026-04-30 22:12 49.23269 4.49931 24232 ft 317 kts 71°
2026-04-30 22:13 49.24070 4.53049 24233 ft 316 kts 71°
2026-04-30 22:13 49.24867 4.56159 24233 ft 316 kts 71°
2026-04-30 22:13 49.25671 4.59298 24233 ft 316 kts 71°
2026-04-30 22:13 49.26474 4.62442 24234 ft 316 kts 71°
2026-04-30 22:14 49.27262 4.65538 24235 ft 316 kts 72°
2026-04-30 22:14 49.28014 4.68728 24232 ft 315 kts 75°
2026-04-30 22:14 49.28663 4.71904 24233 ft 315 kts 75°
2026-04-30 22:14 49.29313 4.75123 24237 ft 315 kts 75°
2026-04-30 22:15 49.29949 4.78282 24235 ft 315 kts 75°
2026-04-30 22:15 49.30601 4.81504 24093 ft 318 kts 75°
2026-04-30 22:15 49.31268 4.84802 23678 ft 330 kts 75°
2026-04-30 22:15 49.31957 4.88202 23132 ft 336 kts 75°
2026-04-30 22:16 49.32647 4.91564 22561 ft 326 kts 75°
2026-04-30 22:16 49.33311 4.94798 22007 ft 317 kts 75°
2026-04-30 22:17 49.35194 5.04018 20428 ft 294 kts 75°
2026-04-30 22:17 49.35803 5.07042 19924 ft 301 kts 75°
2026-04-30 22:17 49.37063 5.13315 18854 ft 315 kts 75°
2026-04-30 22:18 49.37706 5.16511 18306 ft 319 kts 75°
2026-04-30 22:18 49.39026 5.23085 17188 ft 326 kts 74°
2026-04-30 22:19 49.40343 5.29637 16058 ft 313 kts 74°
2026-04-30 22:19 49.40976 5.32786 15309 ft 310 kts 74°
2026-04-30 22:19 49.42207 5.38930 14187 ft 293 kts 74°
2026-04-30 22:20 49.42791 5.41854 13681 ft 285 kts 74°
2026-04-30 22:20 49.43914 5.47499 12712 ft 269 kts 74°
2026-04-30 22:20 49.44452 5.50206 12248 ft 262 kts 74°
2026-04-30 22:21 49.44975 5.52841 11796 ft 256 kts 74°
2026-04-30 22:21 49.45484 5.55410 11356 ft 250 kts 74°
2026-04-30 22:21 49.45978 5.57910 10932 ft 244 kts 74°
2026-04-30 22:21 49.46469 5.60400 10505 ft 238 kts 74°
2026-04-30 22:22 49.46940 5.62783 10091 ft 234 kts 74°
2026-04-30 22:22 49.47408 5.65182 9684 ft 239 kts 75°
2026-04-30 22:22 49.47893 5.67668 9261 ft 242 kts 75°
2026-04-30 22:22 49.48374 5.70124 8848 ft 244 kts 75°
2026-04-30 22:23 49.48862 5.72620 8424 ft 245 kts 75°
2026-04-30 22:23 49.49352 5.75124 8000 ft 247 kts 75°
2026-04-30 22:23 49.49851 5.77682 7564 ft 248 kts 75°
2026-04-30 22:23 49.50340 5.80188 7128 ft 243 kts 76°
2026-04-30 22:24 49.50821 5.82640 6708 ft 236 kts 76°
2026-04-30 22:24 49.51253 5.84853 6329 ft 229 kts 76°
2026-04-30 22:24 49.51704 5.87180 5936 ft 223 kts 77°
2026-04-30 22:24 49.52143 5.89432 5557 ft 217 kts 77°
2026-04-30 22:25 49.52429 5.90901 5302 ft 212 kts 77°
2026-04-30 22:25 49.52980 5.93732 4820 ft 204 kts 77°
2026-04-30 22:25 49.53379 5.95780 4472 ft 197 kts 78°
2026-04-30 22:25 49.53848 5.97607 4203 ft 188 kts 68°
2026-04-30 22:26 49.55211 6.00908 3646 ft 171 kts 76°
2026-04-30 22:26 49.55715 6.02551 3480 ft 170 kts 67°
2026-04-30 22:26 49.56312 6.04071 3313 ft 158 kts 69°
2026-04-30 22:27 49.56829 6.05516 3090 ft 150 kts 69°
2026-04-30 22:27 49.57346 6.06924 2905 ft 153 kts 68°
2026-04-30 22:27 49.58331 6.09557 2533 ft 127 kts 66°
2026-04-30 22:28 49.59017 6.11421 2216 ft 115 kts 66°
2026-04-30 22:28 49.59541 6.12864 2059 ft 121 kts 66°
2026-04-30 22:29 49.60686 6.15890 1631 ft 123 kts 62°
2026-04-30 22:29 49.61263 6.17410 1377 ft 123 kts 63°
2026-04-30 22:30 49.62472 6.20685 1236 ft 31 kts 60°
2026-04-30 22:31 49.62751 6.21189 1238 ft 15 kts 29°
2026-04-30 22:32 49.62972 6.21342 1237 ft 15 kts
2026-04-30 22:32 49.63053 6.21388 1236 ft 9 kts 326°
2026-04-30 22:33 49.63129 6.21426 1236 ft 0 kts 60°